| time (UTC) | temp F | wind direction | speed MPH | gust MPH | rain 1hr in | rain 24hr in | rain mn in | humidity % | barometer mb |
| 20260502204522 | 59 | 0.0 | 2.0 | 0.00 | 0.00 | 0.00 | 68 | 1014.5 | |
| 20260502203602 | 60 | 0.0 | 2.0 | 0.00 | 0.00 | 0.00 | 67 | 1014.6 | |
| 20260502202522 | 60 | 0.0 | 2.0 | 0.00 | 0.00 | 0.00 | 67 | 1014.6 | |
| 20260502201522 | 60 | 270 | 1.0 | 4.0 | 0.00 | 0.00 | 0.00 | 67 | 1014.5 |
| 20260502200521 | 61 | 0.0 | 1.0 | 0.00 | 0.00 | 0.00 | 66 | 1014.6 | |
| 20260502195521 | 62 | 0.0 | 1.0 | 0.00 | 0.00 | 0.00 | 66 | 1014.6 | |
| 20260502194522 | 62 | 0.0 | 1.0 | 0.00 | 0.00 | 0.00 | 66 | 1014.6 | |
| 20260502193522 | 62 | 0.0 | 1.0 | 0.00 | 0.00 | 0.00 | 66 | 1014.8 | |
| 20260502192542 | 61 | 0.0 | 2.0 | 0.00 | 0.00 | 0.00 | 66 | 1014.8 | |
| 20260502191521 | 61 | 0.0 | 1.0 | 0.00 | 0.00 | 0.00 | 67 | 1014.9 | |
| 20260502190522 | 61 | 0.0 | 2.0 | 0.00 | 0.00 | 0.00 | 65 | 1014.9 | |
| 20260502185522 | 62 | 0.0 | 1.0 | 0.00 | 0.00 | 0.00 | 65 | 1014.9 | |
| 20260502184522 | 62 | 0.0 | 3.0 | 0.00 | 0.00 | 0.00 | 64 | 1015.1 | |
| 20260502183521 | 61 | 0.0 | 1.0 | 0.00 | 0.00 | 0.00 | 65 | 1015.1 | |
| 20260502182522 | 60 | 0.0 | 2.0 | 0.00 | 0.00 | 0.00 | 68 | 1015.2 | |
| 20260502181522 | 60 | 0.0 | 2.0 | 0.00 | 0.00 | 0.00 | 67 | 1015.4 | |
| 20260502180522 | 60 | 0.0 | 3.0 | 0.00 | 0.00 | 0.00 | 66 | 1015.4 | |
| 20260502163522 | 58 | 0.0 | 2.0 | 0.00 | 0.00 | 0.00 | 78 | 1016.2 | |
| 20260502162521 | 57 | 0.0 | 1.0 | 0.00 | 0.00 | 0.00 | 78 | 1016.7 | |
| 20260502161522 | 57 | 0.0 | 0.0 | 0.00 | 0.00 | 0.00 | 79 | 1016.9 | |
| 20260502160522 | 57 | 0.0 | 1.0 | 0.00 | 0.00 | 0.00 | 80 | 1017.0 | |
| 20260502151521 | 56 | 0.0 | 1.0 | 0.00 | 0.00 | 0.00 | 79 | 1016.5 | |
| 20260502150521 | 56 | 0.0 | 1.0 | 0.00 | 0.00 | 0.00 | 79 | 1016.6 | |
| 20260502130521 | 55 | 0.0 | 1.0 | 0.00 | 0.00 | 0.00 | 77 | 1016.0 | |
| 20260502123521 | 54 | 0.0 | 0.0 | 0.00 | 0.00 | 0.00 | 78 | 1015.9 | |
| 20260502122521 | 54 | 0.0 | 1.0 | 0.00 | 0.00 | 0.00 | 79 | 1016.0 | |
| 20260502121541 | 54 | 0.0 | 1.0 | 0.00 | 0.00 | 0.00 | 79 | 1015.6 | |
| 20260502120521 | 54 | 0.0 | 1.0 | 0.00 | 0.00 | 0.00 | 80 | 1015.5 | |
| 20260502115021 | 54 | 0.0 | 1.0 | 0.00 | 0.00 | 0.00 | 81 | 1015.7 | |
| 20260502114021 | 54 | 0.0 | 0.0 | 0.00 | 0.00 | 0.00 | 82 | 1015.8 | |
| 20260502113102 | 53 | 0.0 | 1.0 | 0.00 | 0.00 | 0.00 | 82 | 1015.7 | |
| 20260502112021 | 54 | 0.0 | 0.0 | 0.00 | 0.00 | 0.00 | 83 | 1015.6 | |
| 20260502111021 | 54 | 0.0 | 0.0 | 0.00 | 0.00 | 0.00 | 84 | 1015.9 | |
| 20260502110021 | 54 | 0.0 | 0.0 | 0.00 | 0.00 | 0.00 | 83 | 1015.9 | |
| 20260502105541 | 54 | 0.0 | 0.0 | 0.00 | 0.00 | 0.00 | 83 | 1015.8 | |
| 20260502104541 | 54 | 0.0 | 1.0 | 0.00 | 0.00 | 0.00 | 82 | 1016.0 | |
| 20260502103521 | 55 | 0.0 | 1.0 | 0.00 | 0.00 | 0.00 | 80 | 1015.8 | |
| 20260502102521 | 55 | 0.0 | 1.0 | 0.00 | 0.00 | 0.00 | 81 | 1015.9 | |
| 20260502101521 | 55 | 0.0 | 2.0 | 0.00 | 0.00 | 0.00 | 82 | 1016.0 | |
| 20260502100521 | 55 | 0.0 | 3.0 | 0.00 | 0.00 | 0.00 | 84 | 1016.2 | |
| 20260502091521 | 54 | 0.0 | 1.0 | 0.00 | 0.00 | 0.00 | 87 | 1016.0 | |
| 20260502090541 | 54 | 0.0 | 1.0 | 0.00 | 0.00 | 0.00 | 87 | 1015.9 | |
| 20260502070541 | 54 | 0.0 | 0.0 | 0.00 | 0.00 | 0.00 | 87 | 1015.2 | |
| 20260502065520 | 54 | 0.0 | 0.0 | 0.00 | 0.00 | 0.00 | 88 | 1015.2 | |
| 20260502064521 | 53 | 0.0 | 0.0 | 0.00 | 0.00 | 0.00 | 88 | 1015.4 | |
| 20260502063521 | 54 | 0.0 | 1.0 | 0.00 | 0.00 | 0.00 | 88 | 1015.2 | |
| 20260502062521 | 54 | 0.0 | 0.0 | 0.00 | 0.00 | 0.00 | 87 | 1015.2 | |
| 20260502061520 | 54 | 0.0 | 1.0 | 0.00 | 0.00 | 0.00 | 88 | 1015.3 | |
| 20260502060520 | 54 | 0.0 | 0.0 | 0.00 | 0.00 | 0.00 | 88 | 1015.3 | |
| 20260502055521 | 54 | 0.0 | 0.0 | 0.00 | 0.00 | 0.00 | 88 | 1015.2 | |
| 20260502054502 | 54 | 0.0 | 1.0 | 0.00 | 0.00 | 0.00 | 88 | 1015.6 | |
| 20260502054021 | 54 | 0.0 | 1.0 | 0.00 | 0.00 | 0.00 | 88 | 1015.5 | |
| 20260502053020 | 54 | 0.0 | 1.0 | 0.00 | 0.00 | 0.00 | 88 | 1015.6 | |
| 20260502052020 | 54 | 0.0 | 0.0 | 0.00 | 0.00 | 0.00 | 88 | 1015.5 | |
| 20260502051020 | 54 | 0.0 | 0.0 | 0.00 | 0.00 | 0.00 | 88 | 1015.6 | |
| 20260502050021 | 54 | 0.0 | 1.0 | 0.00 | 0.00 | 0.00 | 88 | 1015.7 | |
| 20260502045141 | 54 | 0.0 | 0.0 | 0.00 | 0.00 | 0.00 | 88 | 1015.9 | |
| 20260502044020 | 54 | 0.0 | 0.0 | 0.00 | 0.00 | 0.00 | 88 | 1015.9 | |
| 20260502043020 | 54 | 0.0 | 0.0 | 0.00 | 0.00 | 0.00 | 88 | 1016.0 | |
| 20260502042022 | 54 | 0.0 | 0.0 | 0.00 | 0.00 | 0.00 | 88 | 1015.9 | |
| 20260502041041 | 54 | 0.0 | 0.0 | 0.00 | 0.00 | 0.00 | 88 | 1016.0 | |
| 20260502040022 | 54 | 0.0 | 1.0 | 0.00 | 0.00 | 0.00 | 88 | 1016.1 | |
| 20260502035522 | 54 | 0.0 | 0.0 | 0.00 | 0.00 | 0.00 | 88 | 1016.2 | |
| 20260502034521 | 54 | 0.0 | 0.0 | 0.00 | 0.00 | 0.00 | 88 | 1016.2 | |
| 20260502033521 | 54 | 0.0 | 0.0 | 0.00 | 0.00 | 0.00 | 87 | 1016.3 | |
| 20260502032540 | 54 | 0.0 | 0.0 | 0.00 | 0.00 | 0.00 | 87 | 1016.1 | |
| 20260502031522 | 54 | 0.0 | 1.0 | 0.00 | 0.00 | 0.00 | 87 | 1016.1 | |
| 20260502030522 | 54 | 0.0 | 0.0 | 0.00 | 0.00 | 0.00 | 86 | 1016.1 | |
| 20260502025632 | 54 | 0.0 | 0.0 | 0.00 | 0.00 | 0.00 | 85 | 1016.2 | |
| 20260502024520 | 54 | 0.0 | 0.0 | 0.00 | 0.00 | 0.00 | 85 | 1016.3 | |
| 20260502023542 | 55 | 0.0 | 1.0 | 0.00 | 0.00 | 0.00 | 84 | 1016.2 | |
| 20260502022522 | 55 | 0.0 | 1.0 | 0.00 | 0.00 | 0.00 | 84 | 1016.3 | |
| 20260502021540 | 55 | 0.0 | 1.0 | 0.00 | 0.00 | 0.00 | 83 | 1016.4 | |
| 20260502020520 | 55 | 0.0 | 0.0 | 0.00 | 0.00 | 0.00 | 82 | 1016.2 | |
| 20260502015523 | 55 | 0.0 | 0.0 | 0.00 | 0.00 | 0.00 | 82 | 1016.3 | |
| 20260502014522 | 56 | 0.0 | 1.0 | 0.00 | 0.00 | 0.00 | 81 | 1016.2 | |
| 20260502013542 | 56 | 0.0 | 2.0 | 0.00 | 0.00 | 0.00 | 80 | 1016.1 | |
| 20260502012522 | 56 | 0.0 | 1.0 | 0.00 | 0.00 | 0.00 | 79 | 1016.0 | |
| 20260502011522 | 56 | 0.0 | 0.0 | 0.00 | 0.00 | 0.00 | 78 | 1016.1 | |
| 20260502010522 | 56 | 0.0 | 0.0 | 0.00 | 0.00 | 0.00 | 77 | 1015.8 | |
| 20260502005522 | 56 | 0.0 | 1.0 | 0.00 | 0.00 | 0.00 | 77 | 1015.6 | |
| 20260502004522 | 56 | 0.0 | 2.0 | 0.00 | 0.00 | 0.00 | 76 | 1015.8 | |
| 20260502003522 | 57 | 0.0 | 1.0 | 0.00 | 0.00 | 0.00 | 75 | 1015.4 | |
| 20260502002522 | 57 | 0.0 | 1.0 | 0.00 | 0.00 | 0.00 | 74 | 1015.4 | |
| 20260502001523 | 57 | 0.0 | 2.0 | 0.00 | 0.00 | 0.00 | 74 | 1015.3 | |
| 20260502000522 | 57 | 0.0 | 1.0 | 0.00 | 0.00 | 0.00 | 73 | 1015.2 | |
| 20260501235522 | 58 | 0.0 | 1.0 | 0.00 | 0.00 | 0.00 | 73 | 1015.3 | |
| 20260501234522 | 58 | 45 | 1.0 | 2.0 | 0.00 | 0.00 | 0.00 | 73 | 1015.4 |
| 20260501234022 | 59 | 0.0 | 1.0 | 0.00 | 0.00 | 0.00 | 72 | 1015.4 | |
| 20260501233042 | 59 | 0.0 | 3.0 | 0.00 | 0.00 | 0.00 | 72 | 1015.3 | |
| 20260501232022 | 59 | 0.0 | 2.0 | 0.00 | 0.00 | 0.00 | 72 | 1015.2 | |
| 20260501231022 | 60 | 0.0 | 1.0 | 0.00 | 0.00 | 0.00 | 72 | 1015.2 | |
| 20260501230022 | 60 | 0.0 | 3.0 | 0.00 | 0.00 | 0.00 | 71 | 1015.1 | |
| 20260501225022 | 60 | 0.0 | 3.0 | 0.00 | 0.00 | 0.00 | 71 | 1015.1 | |
| 20260501224021 | 60 | 0.0 | 2.0 | 0.00 | 0.00 | 0.00 | 70 | 1015.3 | |
| 20260501223022 | 60 | 45 | 1.0 | 5.0 | 0.00 | 0.00 | 0.00 | 69 | 1015.4 |
| 20260501222022 | 61 | 68 | 1.0 | 5.0 | 0.00 | 0.00 | 0.00 | 67 | 1015.6 |
| 20260501221022 | 61 | 0.0 | 3.0 | 0.00 | 0.00 | 0.00 | 66 | 1015.5 | |
| 20260501220022 | 62 | 45 | 1.0 | 4.0 | 0.00 | 0.00 | 0.00 | 64 | 1015.6 |
| 20260501215022 | 63 | 0.0 | 3.0 | 0.00 | 0.00 | 0.00 | 63 | 1015.7 | |
| 20260501214021 | 63 | 68 | 1.0 | 5.0 | 0.00 | 0.00 | 0.00 | 63 | 1015.7 |
| 20260501213522 | 63 | 68 | 1.0 | 6.0 | 0.00 | 0.00 | 0.00 | 63 | 1015.7 |
| 20260501212022 | 63 | 248 | 1.0 | 4.0 | 0.00 | 0.00 | 0.00 | 62 | 1015.8 |
| 20260501211022 | 64 | 45 | 1.0 | 4.0 | 0.00 | 0.00 | 0.00 | 61 | 1015.7 |
| 20260501210021 | 64 | 45 | 1.0 | 6.0 | 0.00 | 0.00 | 0.00 | 59 | 1015.7 |
| 20260501205021 | 65 | 68 | 1.0 | 4.0 | 0.00 | 0.00 | 0.00 | 60 | 1015.8 |